Time,TemperatureF,DewpointF,PressureIn,WindDirection,WindDirectionDegrees,WindSpeedMPH,WindSpeedGustMPH,Humidity,HourlyPrecipIn,Conditions,Clouds,dailyrainin,SoftwareType,DateUTC
2013-05-21 00:02:00,38.0,29.0,-100.00,West,274,16.0,22.0,72,0.00,,,-99.99,,2013-05-21 06:02:00,
2013-05-21 00:12:00,37.0,29.0,-100.00,West,278,15.0,19.0,73,0.00,,,-99.99,,2013-05-21 06:12:00,
2013-05-21 00:21:00,37.0,29.0,-100.00,West,280,16.0,19.0,73,0.00,,,-99.99,,2013-05-21 06:21:00,
2013-05-21 00:32:00,37.0,30.0,-100.00,West,274,13.0,17.0,74,0.00,,,-99.99,,2013-05-21 06:32:00,
2013-05-21 00:41:00,38.0,29.0,-100.00,West,272,12.0,17.0,72,0.00,,,-99.99,,2013-05-21 06:41:00,
2013-05-21 00:51:00,39.0,29.0,-100.00,WSW,257,16.0,22.0,67,0.00,,,-99.99,,2013-05-21 06:51:00,
2013-05-21 01:01:00,39.0,29.0,-100.00,WSW,251,19.0,24.0,67,0.00,,,-99.99,,2013-05-21 07:01:00,
2013-05-21 01:11:00,39.0,29.0,-100.00,WSW,257,18.0,24.0,68,0.00,,,-99.99,,2013-05-21 07:11:00,
2013-05-21 01:22:00,38.0,29.0,-100.00,West,263,18.0,24.0,68,0.00,,,-99.99,,2013-05-21 07:22:00,
2013-05-21 01:31:00,39.0,29.0,-100.00,West,260,19.0,24.0,67,0.00,,,-99.99,,2013-05-21 07:31:00,
2013-05-21 01:41:00,38.0,29.0,-100.00,WSW,256,19.0,24.0,70,0.00,,,-99.99,,2013-05-21 07:41:00,
2013-05-21 01:51:00,38.0,29.0,-100.00,WSW,251,20.0,26.0,70,0.00,,,-99.99,,2013-05-21 07:51:00,
2013-05-21 02:02:00,38.0,29.0,-100.00,WSW,250,20.0,24.0,69,0.00,,,-99.99,,2013-05-21 08:02:00,
2013-05-21 02:11:00,38.0,29.0,-100.00,WSW,251,19.0,24.0,69,0.00,,,-99.99,,2013-05-21 08:11:00,
2013-05-21 02:21:00,37.0,28.0,-100.00,WSW,254,19.0,24.0,69,0.00,,,-99.99,,2013-05-21 08:21:00,
2013-05-21 02:31:00,37.0,27.0,-100.00,WSW,250,19.0,24.0,67,0.00,,,-99.99,,2013-05-21 08:31:00,
2013-05-21 02:41:00,37.0,27.0,-100.00,WSW,251,21.0,27.0,67,0.00,,,-99.99,,2013-05-21 08:41:00,
2013-05-21 02:52:00,37.0,28.0,-100.00,WSW,253,19.0,25.0,69,0.00,,,-99.99,,2013-05-21 08:52:00,
2013-05-21 03:01:00,37.0,27.0,-100.00,WSW,253,19.0,22.0,68,0.00,,,-99.99,,2013-05-21 09:01:00,
2013-05-21 03:11:00,36.0,27.0,-100.00,WSW,257,16.0,23.0,70,0.00,,,-99.99,,2013-05-21 09:11:00,
2013-05-21 03:21:00,36.0,27.0,-100.00,WSW,258,16.0,21.0,68,0.00,,,-99.99,,2013-05-21 09:21:00,
2013-05-21 03:32:00,35.0,27.0,-100.00,WSW,254,17.0,24.0,71,0.00,,,-99.99,,2013-05-21 09:32:00,
2013-05-21 03:42:00,36.0,26.0,-100.00,WSW,256,17.0,24.0,66,0.00,,,-99.99,,2013-05-21 09:42:00,
2013-05-21 03:52:00,36.0,25.0,-100.00,WSW,256,18.0,24.0,66,0.00,,,-99.99,,2013-05-21 09:52:00,
2013-05-21 04:02:00,35.0,25.0,-100.00,WSW,258,16.0,19.0,66,0.00,,,-99.99,,2013-05-21 10:02:00,
2013-05-21 04:12:00,36.0,25.0,-100.00,WSW,254,16.0,22.0,64,0.00,,,-99.99,,2013-05-21 10:12:00,
2013-05-21 04:22:00,36.0,25.0,-100.00,WSW,250,17.0,22.0,63,0.00,,,-99.99,,2013-05-21 10:22:00,
2013-05-21 04:32:00,36.0,24.0,-100.00,WSW,248,19.0,24.0,62,0.00,,,-99.99,,2013-05-21 10:32:00,
2013-05-21 04:42:00,35.0,24.0,-100.00,WSW,250,16.0,22.0,64,0.00,,,-99.99,,2013-05-21 10:42:00,
2013-05-21 04:52:00,35.0,24.0,-100.00,WSW,247,16.0,21.0,64,0.00,,,-99.99,,2013-05-21 10:52:00,
2013-05-21 05:02:00,35.0,24.0,-100.00,WSW,248,16.0,21.0,65,0.00,,,-99.99,,2013-05-21 11:02:00,
2013-05-21 05:11:00,35.0,24.0,-100.00,WSW,251,17.0,21.0,65,0.00,,,-99.99,,2013-05-21 11:11:00,
2013-05-21 05:21:00,35.0,24.0,-100.00,WSW,247,16.0,21.0,65,0.00,,,-99.99,,2013-05-21 11:21:00,
2013-05-21 05:32:00,35.0,25.0,-100.00,WSW,241,13.0,17.0,67,0.00,,,-99.99,,2013-05-21 11:32:00,
2013-05-21 05:41:00,35.0,25.0,-100.00,WSW,244,13.0,19.0,67,0.00,,,-99.99,,2013-05-21 11:41:00,
2013-05-21 05:51:00,35.0,25.0,-100.00,WSW,243,14.0,21.0,66,0.00,,,-99.99,,2013-05-21 11:51:00,
2013-05-21 06:01:00,35.0,26.0,-100.00,WSW,246,14.0,21.0,67,0.00,,,-99.99,,2013-05-21 12:01:00,
2013-05-21 06:11:00,36.0,26.0,-100.00,WSW,254,17.0,22.0,64,0.00,,,-99.99,,2013-05-21 12:11:00,
2013-05-21 06:21:00,35.0,26.0,-100.00,West,263,17.0,21.0,67,0.00,,,-99.99,,2013-05-21 12:21:00,
2013-05-21 06:32:00,35.0,25.0,-100.00,WSW,254,17.0,22.0,67,0.00,,,-99.99,,2013-05-21 12:32:00,
2013-05-21 06:41:00,35.0,25.0,-100.00,WSW,256,19.0,24.0,66,0.00,,,-99.99,,2013-05-21 12:41:00,
2013-05-21 06:51:00,36.0,25.0,-100.00,WSW,253,17.0,22.0,64,0.00,,,-99.99,,2013-05-21 12:51:00,
2013-05-21 07:01:00,36.0,25.0,-100.00,WSW,253,18.0,24.0,64,0.00,,,-99.99,,2013-05-21 13:01:00,
2013-05-21 07:12:00,36.0,25.0,-100.00,WSW,251,19.0,26.0,63,0.00,,,-99.99,,2013-05-21 13:12:00,
2013-05-21 07:22:00,36.0,25.0,-100.00,WSW,246,17.0,22.0,64,0.00,,,-99.99,,2013-05-21 13:22:00,
2013-05-21 07:32:00,37.0,26.0,-100.00,WSW,246,18.0,22.0,63,0.00,,,-99.99,,2013-05-21 13:32:00,
2013-05-21 07:41:00,38.0,26.0,-100.00,WSW,248,18.0,25.0,62,0.00,,,-99.99,,2013-05-21 13:41:00,
2013-05-21 07:52:00,38.0,26.0,-100.00,WSW,250,16.0,21.0,63,0.00,,,-99.99,,2013-05-21 13:52:00,
2013-05-21 08:01:00,38.0,26.0,-100.00,WSW,250,17.0,22.0,62,0.00,,,-99.99,,2013-05-21 14:01:00,
2013-05-21 08:11:00,39.0,27.0,-100.00,WSW,250,17.0,22.0,62,0.00,,,-99.99,,2013-05-21 14:11:00,
2013-05-21 08:21:00,39.0,27.0,-100.00,WSW,256,17.0,23.0,61,0.00,,,-99.99,,2013-05-21 14:21:00,
2013-05-21 08:32:00,39.0,27.0,-100.00,WSW,258,16.0,22.0,60,0.00,,,-99.99,,2013-05-21 14:32:00,
2013-05-21 08:41:00,40.0,26.0,-100.00,West,261,16.0,21.0,59,0.00,,,-99.99,,2013-05-21 14:41:00,
2013-05-21 08:51:00,40.0,27.0,-100.00,West,268,18.0,24.0,58,0.00,,,-99.99,,2013-05-21 14:51:00,
2013-05-21 09:01:00,40.0,27.0,-100.00,West,271,17.0,24.0,61,0.00,,,-99.99,,2013-05-21 15:01:00,
2013-05-21 09:11:00,40.0,28.0,-100.00,West,281,16.0,22.0,62,0.00,,,-99.99,,2013-05-21 15:11:00,
2013-05-21 09:21:00,40.0,27.0,-100.00,West,278,17.0,23.0,58,0.00,,,-99.99,,2013-05-21 15:21:00,
2013-05-21 09:33:00,41.0,28.0,-100.00,West,277,17.0,22.0,59,0.00,,,-99.99,,2013-05-21 15:33:00,
2013-05-21 09:42:00,42.0,29.0,-100.00,West,278,17.0,22.0,61,0.00,,,-99.99,,2013-05-21 15:42:00,
2013-05-21 09:52:00,42.0,27.0,-100.00,West,265,17.0,24.0,57,0.00,,,-99.99,,2013-05-21 15:52:00,
2013-05-21 10:03:00,44.0,29.0,-100.00,West,281,16.0,25.0,56,0.00,,,-99.99,,2013-05-21 16:03:00,
2013-05-21 10:12:00,43.0,28.0,-100.00,West,268,17.0,24.0,56,0.00,,,-99.99,,2013-05-21 16:12:00,
2013-05-21 10:23:00,43.0,27.0,-100.00,West,265,17.0,24.0,54,0.00,,,-99.99,,2013-05-21 16:23:00,
2013-05-21 10:32:00,44.0,28.0,-100.00,West,263,18.0,24.0,54,0.00,,,-99.99,,2013-05-21 16:32:00,
2013-05-21 10:42:00,44.0,27.0,-100.00,WSW,251,19.0,28.0,52,0.00,,,-99.99,,2013-05-21 16:42:00,
2013-05-21 10:52:00,44.0,27.0,-100.00,West,261,19.0,27.0,50,0.00,,,-99.99,,2013-05-21 16:52:00,
2013-05-21 11:02:00,45.0,28.0,-100.00,West,261,19.0,26.0,51,0.00,,,-99.99,,2013-05-21 17:02:00,
2013-05-21 11:12:00,45.0,28.0,-100.00,WSW,251,20.0,31.0,51,0.00,,,-99.99,,2013-05-21 17:12:00,
2013-05-21 11:23:00,46.0,28.0,-100.00,WSW,253,20.0,31.0,49,0.00,,,-99.99,,2013-05-21 17:23:00,
2013-05-21 11:32:00,46.0,28.0,-100.00,WSW,243,22.0,30.0,50,0.00,,,-99.99,,2013-05-21 17:32:00,
2013-05-21 11:43:00,47.0,29.0,-100.00,WSW,250,22.0,34.0,48,0.00,,,-99.99,,2013-05-21 17:43:00,
2013-05-21 11:52:00,47.0,29.0,-100.00,WSW,250,23.0,35.0,50,0.00,,,-99.99,,2013-05-21 17:52:00,
2013-05-21 12:01:00,46.0,28.0,-100.00,WSW,248,24.0,31.0,49,0.00,,,-99.99,,2013-05-21 18:01:00,
2013-05-21 12:12:00,46.0,28.0,-100.00,WSW,241,22.0,31.0,49,0.00,,,-99.99,,2013-05-21 18:12:00,
2013-05-21 12:22:00,46.0,28.0,-100.00,WSW,247,21.0,30.0,49,0.00,,,-99.99,,2013-05-21 18:22:00,
2013-05-21 12:32:00,47.0,28.0,-100.00,WSW,241,21.0,29.0,49,0.00,,,-99.99,,2013-05-21 18:32:00,
2013-05-21 12:42:00,47.0,27.0,-100.00,WSW,243,21.0,29.0,46,0.00,,,-99.99,,2013-05-21 18:42:00,
2013-05-21 12:51:00,47.0,28.0,-100.00,WSW,246,22.0,31.0,47,0.00,,,-99.99,,2013-05-21 18:51:00,
2013-05-21 13:01:00,48.0,28.0,-100.00,WSW,248,23.0,30.0,46,0.00,,,-99.99,,2013-05-21 19:01:00,
2013-05-21 13:11:00,48.0,29.0,-100.00,WSW,243,22.0,29.0,48,0.00,,,-99.99,,2013-05-21 19:11:00,
2013-05-21 13:21:00,49.0,28.0,-100.00,WSW,251,23.0,32.0,43,0.00,,,-99.99,,2013-05-21 19:21:00,
2013-05-21 13:32:00,49.0,27.0,-100.00,WSW,244,21.0,30.0,43,0.00,,,-99.99,,2013-05-21 19:32:00,
2013-05-21 13:41:00,49.0,28.0,-100.00,WSW,244,22.0,31.0,45,0.00,,,-99.99,,2013-05-21 19:41:00,
2013-05-21 13:52:00,49.0,28.0,-100.00,WSW,240,21.0,29.0,43,0.00,,,-99.99,,2013-05-21 19:52:00,
2013-05-21 14:03:00,50.0,28.0,-100.00,WSW,247,22.0,32.0,42,0.00,,,-99.99,,2013-05-21 20:03:00,
2013-05-21 14:11:00,50.0,29.0,-100.00,WSW,240,20.0,27.0,44,0.00,,,-99.99,,2013-05-21 20:11:00,
2013-05-21 14:22:00,50.0,29.0,-100.00,WSW,243,21.0,29.0,44,0.00,,,-99.99,,2013-05-21 20:22:00,
2013-05-21 14:32:00,51.0,29.0,-100.00,WSW,243,22.0,29.0,42,0.00,,,-99.99,,2013-05-21 20:32:00,
2013-05-21 14:42:00,50.0,28.0,-100.00,SW,234,21.0,33.0,42,0.00,,,-99.99,,2013-05-21 20:42:00,
2013-05-21 14:52:00,51.0,29.0,-100.00,WSW,240,21.0,30.0,43,0.00,,,-99.99,,2013-05-21 20:52:00,
2013-05-21 15:02:00,52.0,29.0,-100.00,WSW,248,20.0,29.0,42,0.00,,,-99.99,,2013-05-21 21:02:00,
2013-05-21 15:11:00,51.0,26.0,-100.00,WSW,250,21.0,29.0,38,0.00,,,-99.99,,2013-05-21 21:11:00,
2013-05-21 15:21:00,52.0,28.0,-100.00,WSW,247,21.0,29.0,40,0.00,,,-99.99,,2013-05-21 21:21:00,
2013-05-21 15:32:00,52.0,27.0,-100.00,WSW,246,21.0,29.0,39,0.00,,,-99.99,,2013-05-21 21:32:00,
2013-05-21 15:43:00,52.0,28.0,-100.00,WSW,246,21.0,31.0,39,0.00,,,-99.99,,2013-05-21 21:43:00,
2013-05-21 15:53:00,52.0,29.0,-100.00,WSW,241,21.0,28.0,41,0.00,,,-99.99,,2013-05-21 21:53:00,
2013-05-21 16:02:00,53.0,30.0,-100.00,SW,234,20.0,29.0,41,0.00,,,-99.99,,2013-05-21 22:02:00,
2013-05-21 16:12:00,52.0,29.0,-100.00,WSW,239,20.0,28.0,41,0.00,,,-99.99,,2013-05-21 22:12:00,
2013-05-21 16:22:00,52.0,27.0,-100.00,WSW,241,21.0,26.0,38,0.00,,,-99.99,,2013-05-21 22:22:00,
2013-05-21 16:33:00,53.0,29.0,-100.00,WSW,248,22.0,29.0,40,0.00,,,-99.99,,2013-05-21 22:33:00,
2013-05-21 16:42:00,53.0,30.0,-100.00,WSW,240,19.0,26.0,40,0.00,,,-99.99,,2013-05-21 22:42:00,
2013-05-21 16:52:00,53.0,28.0,-100.00,WSW,239,20.0,29.0,38,0.00,,,-99.99,,2013-05-21 22:52:00,
2013-05-21 17:02:00,54.0,29.0,-100.00,WSW,248,20.0,31.0,37,0.00,,,-99.99,,2013-05-21 23:02:00,
2013-05-21 17:12:00,52.0,27.0,-100.00,WSW,239,23.0,30.0,38,0.00,,,-99.99,,2013-05-21 23:12:00,
2013-05-21 17:22:00,53.0,28.0,-100.00,SW,236,23.0,30.0,37,0.00,,,-99.99,,2013-05-21 23:22:00,
2013-05-21 17:32:00,53.0,27.0,-100.00,WSW,240,22.0,31.0,36,0.00,,,-99.99,,2013-05-21 23:32:00,
2013-05-21 17:42:00,54.0,27.0,-100.00,WSW,246,23.0,29.0,35,0.00,,,-99.99,,2013-05-21 23:42:00,
2013-05-21 17:52:00,54.0,27.0,-100.00,WSW,246,21.0,29.0,35,0.00,,,-99.99,,2013-05-21 23:52:00,
2013-05-21 18:01:00,54.0,28.0,-100.00,WSW,241,19.0,29.0,36,0.00,,,-99.99,,2013-05-22 00:01:00,
2013-05-21 18:11:00,53.0,28.0,-100.00,WSW,239,18.0,27.0,38,0.00,,,-99.99,,2013-05-22 00:11:00,
2013-05-21 18:21:00,54.0,28.0,-100.00,WSW,243,18.0,28.0,36,0.00,,,-99.99,,2013-05-22 00:21:00,
2013-05-21 18:32:00,53.0,29.0,-100.00,SW,233,16.0,22.0,39,0.00,,,-99.99,,2013-05-22 00:32:00,
2013-05-21 18:41:00,52.0,29.0,-100.00,SW,234,14.0,21.0,40,0.00,,,-99.99,,2013-05-22 00:41:00,
2013-05-21 18:51:00,54.0,28.0,-100.00,WSW,237,12.0,18.0,36,0.00,,,-99.99,,2013-05-22 00:51:00,
2013-05-21 19:01:00,54.0,27.0,-100.00,SW,232,16.0,24.0,35,0.00,,,-99.99,,2013-05-22 01:01:00,
2013-05-21 19:11:00,54.0,27.0,-100.00,WSW,237,14.0,19.0,35,0.00,,,-99.99,,2013-05-22 01:11:00,
2013-05-21 19:21:00,53.0,28.0,-100.00,SW,236,14.0,21.0,37,0.00,,,-99.99,,2013-05-22 01:21:00,
2013-05-21 19:32:00,53.0,28.0,-100.00,SW,236,12.0,17.0,37,0.00,,,-99.99,,2013-05-22 01:32:00,
2013-05-21 19:41:00,54.0,27.0,-100.00,WSW,246,12.0,18.0,35,0.00,,,-99.99,,2013-05-22 01:41:00,
2013-05-21 19:52:00,53.0,27.0,-100.00,WSW,243,12.0,19.0,36,0.00,,,-99.99,,2013-05-22 01:52:00,
2013-05-21 20:01:00,53.0,28.0,-100.00,WSW,250,11.0,13.0,38,0.00,,,-99.99,,2013-05-22 02:01:00,
2013-05-21 20:11:00,52.0,29.0,-100.00,WSW,254,9.0,12.0,40,0.00,,,-99.99,,2013-05-22 02:11:00,
2013-05-21 20:21:00,51.0,29.0,-100.00,WSW,250,6.0,9.0,42,0.00,,,-99.99,,2013-05-22 02:21:00,
2013-05-21 20:32:00,50.0,29.0,-100.00,WSW,250,4.0,5.0,44,0.00,,,-99.99,,2013-05-22 02:32:00,
2013-05-21 20:41:00,50.0,30.0,-100.00,WSW,257,4.0,6.0,45,0.00,,,-99.99,,2013-05-22 02:41:00,
2013-05-21 20:51:00,48.0,29.0,-100.00,SW,227,2.0,4.0,48,0.00,,,-99.99,,2013-05-22 02:51:00,
2013-05-21 21:01:00,47.0,30.0,-100.00,South,188,3.0,6.0,51,0.00,,,-99.99,,2013-05-22 03:01:00,
2013-05-21 21:11:00,47.0,30.0,-100.00,SSW,195,2.0,6.0,51,0.00,,,-99.99,,2013-05-22 03:11:00,
2013-05-21 21:21:00,46.0,31.0,-100.00,SSW,192,6.0,7.0,55,0.00,,,-99.99,,2013-05-22 03:21:00,
2013-05-21 21:33:00,46.0,31.0,-100.00,South,191,6.0,8.0,55,0.00,,,-99.99,,2013-05-22 03:33:00,
2013-05-21 21:43:00,47.0,30.0,-100.00,SSW,203,6.0,8.0,50,0.00,,,-99.99,,2013-05-22 03:43:00,
2013-05-21 21:53:00,48.0,30.0,-100.00,SW,232,3.0,6.0,50,0.00,,,-99.99,,2013-05-22 03:53:00,
2013-05-21 22:03:00,47.0,31.0,-100.00,SW,230,3.0,5.0,52,0.00,,,-99.99,,2013-05-22 04:03:00,
2013-05-21 22:13:00,46.0,30.0,-100.00,South,184,3.0,4.0,54,0.00,,,-99.99,,2013-05-22 04:13:00,
2013-05-21 22:22:00,46.0,31.0,-100.00,SSW,192,2.0,4.0,55,0.00,,,-99.99,,2013-05-22 04:22:00,
2013-05-21 22:33:00,46.0,31.0,-100.00,SSW,203,2.0,6.0,55,0.00,,,-99.99,,2013-05-22 04:33:00,
2013-05-21 22:43:00,45.0,31.0,-100.00,South,188,4.0,6.0,57,0.00,,,-99.99,,2013-05-22 04:43:00,
2013-05-21 22:52:00,44.0,32.0,-100.00,South,186,6.0,7.0,62,0.00,,,-99.99,,2013-05-22 04:52:00,
2013-05-21 23:02:00,44.0,32.0,-100.00,South,188,6.0,7.0,63,0.00,,,-99.99,,2013-05-22 05:02:00,
2013-05-21 23:11:00,44.0,32.0,-100.00,SSE,155,6.0,9.0,63,0.00,,,-99.99,,2013-05-22 05:11:00,
2013-05-21 23:21:00,42.0,32.0,-100.00,NE,56,6.0,10.0,67,0.00,,,-99.99,,2013-05-22 05:21:00,
2013-05-21 23:32:00,41.0,32.0,-100.00,ENE,78,3.0,6.0,69,0.00,,,-99.99,,2013-05-22 05:32:00,
2013-05-21 23:42:00,41.0,32.0,-100.00,ENE,69,4.0,6.0,69,0.00,,,-99.99,,2013-05-22 05:42:00,
2013-05-21 23:51:00,39.0,31.0,-100.00,ENE,58,3.0,6.0,73,0.00,,,-99.99,,2013-05-22 05:51:00,